Location: Byszew
(52.1813°N, 19.2693°E)
Time: 20:02:56
(UTC+00:00)

NOAA 18 - Pass Details

Date: 05 July 2022
Orbit: 839 x 860 km, 98.9° (Epoch: 17 August)

Event Time Altitude Azimuth Distance (km) Brightness Sun altitude
Exits shadow 20:07:53 - 164° (SSE) 2,747 7.3 -7.4°
Reaches altitude 10° 20:08:33 10° 164° (SSE) 2,483 7.1 -7.4°
Maximum altitude 20:14:05 85° 254° (WSW) 869 5.3 -7.9°
Drops below altitude 10° 20:19:41 10° 343° (NNW) 2,510 9.1 -8.4°
Sets 20:22:05 0° 344° (NNW) 3,452 10.0 -8.6°
